UAL2268 KSAN-KLAX

Flight info

Callsign UAL2268
Flight time N/A
Altitude 10000
Route CWARD2 SLI
Aircraft B739/M-SDE2E3FGHIRWXY/LB1

Departure

Time 2026-04-25 03:36
Airport San Diego International Airport (KSAN)

Arrival

Time N/A
Airport Los Angeles International Airport (KLAX)
Time Latitude Longitude Altitude Speed Heading
2026-04-25 03:02 32.73418 -117.20337 23 ft 0 kts 267°
2026-04-25 03:20 32.73419 -117.20325 26 ft 3 kts 266°
2026-04-25 03:20 32.73419 -117.20301 25 ft 3 kts 275°
2026-04-25 03:20 32.73416 -117.20280 26 ft 3 kts 310°
2026-04-25 03:20 32.73410 -117.20272 25 ft 2 kts 14°
2026-04-25 03:21 32.73407 -117.20272 25 ft 0 kts 16°
2026-04-25 03:25 32.73408 -117.20272 23 ft 0 kts 16°
2026-04-25 03:25 32.73432 -117.20264 24 ft 8 kts 16°
2026-04-25 03:25 32.73504 -117.20239 27 ft 11 kts 19°
2026-04-25 03:26 32.73543 -117.20182 25 ft 9 kts 91°
2026-04-25 03:26 32.73528 -117.20107 27 ft 9 kts 106°
2026-04-25 03:26 32.73509 -117.20027 26 ft 11 kts 106°
2026-04-25 03:26 32.73484 -117.19923 26 ft 15 kts 106°
2026-04-25 03:27 32.73453 -117.19794 26 ft 18 kts 105°
2026-04-25 03:27 32.73414 -117.19636 28 ft 20 kts 106°
2026-04-25 03:27 32.73376 -117.19480 27 ft 17 kts 106°
2026-04-25 03:27 32.73341 -117.19333 25 ft 20 kts 106°
2026-04-25 03:28 32.73301 -117.19172 26 ft 19 kts 106°
2026-04-25 03:28 32.73268 -117.19032 29 ft 18 kts 106°
2026-04-25 03:28 32.73231 -117.18881 29 ft 20 kts 105°
2026-04-25 03:28 32.73193 -117.18723 27 ft 19 kts 105°
2026-04-25 03:29 32.73154 -117.18562 26 ft 22 kts 106°
2026-04-25 03:29 32.73108 -117.18371 26 ft 25 kts 106°
2026-04-25 03:29 32.73062 -117.18180 21 ft 24 kts 106°
2026-04-25 03:29 32.73018 -117.17997 19 ft 21 kts 106°
2026-04-25 03:30 32.72979 -117.17837 19 ft 18 kts 106°
2026-04-25 03:30 32.72957 -117.17748 20 ft 12 kts 106°
2026-04-25 03:30 32.72955 -117.17668 19 ft 0 kts 74°
2026-04-25 03:33 32.72956 -117.17661 19 ft 4 kts 74°
2026-04-25 03:34 32.72971 -117.17609 21 ft 8 kts 63°
2026-04-25 03:34 32.73021 -117.17603 23 ft 8 kts 307°
2026-04-25 03:34 32.73048 -117.17699 21 ft 16 kts 286°
2026-04-25 03:34 32.73062 -117.17757 22 ft 0 kts 287°
2026-04-25 03:35 32.73063 -117.17758 22 ft 1 kts 287°
2026-04-25 03:35 32.73103 -117.17924 19 ft 57 kts 286°
2026-04-25 03:35 32.73284 -117.18672 26 ft 128 kts 286°
2026-04-25 03:35 32.73576 -117.19916 61 ft 179 kts 285°
2026-04-25 03:36 32.73986 -117.21302 897 ft 170 kts 289°
2026-04-25 03:36 32.74487 -117.22521 1801 ft 170 kts 303°
2026-04-25 03:36 32.75236 -117.23707 2093 ft 192 kts 304°
2026-04-25 03:36 32.76044 -117.25060 2258 ft 209 kts 304°
2026-04-25 03:37 32.76901 -117.26532 2424 ft 225 kts 303°
2026-04-25 03:37 32.77806 -117.28102 2743 ft 233 kts 303°
2026-04-25 03:37 32.78753 -117.29752 2895 ft 250 kts 303°
2026-04-25 03:37 32.79749 -117.31495 3350 ft 257 kts 303°
2026-04-25 03:38 32.80806 -117.33215 4013 ft 259 kts 306°
2026-04-25 03:38 32.81907 -117.34920 4645 ft 261 kts 306°
2026-04-25 03:38 32.83022 -117.36633 5266 ft 263 kts 306°
2026-04-25 03:38 32.84145 -117.38360 5905 ft 264 kts 306°
2026-04-25 03:39 32.85269 -117.40092 6529 ft 266 kts 305°
2026-04-25 03:39 32.86405 -117.41847 7133 ft 268 kts 305°
2026-04-25 03:39 32.87544 -117.43610 7770 ft 269 kts 305°
2026-04-25 03:39 32.88670 -117.45356 8419 ft 270 kts 304°
2026-04-25 03:40 32.89816 -117.47135 9102 ft 271 kts 304°
2026-04-25 03:40 32.90964 -117.48917 9765 ft 273 kts 304°
2026-04-25 03:40 32.92157 -117.50777 9964 ft 293 kts 304°
2026-04-25 03:40 32.93439 -117.52780 9993 ft 315 kts 304°
2026-04-25 03:41 32.94792 -117.54889 9991 ft 322 kts 304°
2026-04-25 03:41 32.96153 -117.57005 9977 ft 321 kts 304°
2026-04-25 03:41 32.97511 -117.59118 9972 ft 320 kts 304°
2026-04-25 03:41 32.98861 -117.61222 9977 ft 321 kts 304°
2026-04-25 03:42 33.00217 -117.63338 9977 ft 321 kts 304°
2026-04-25 03:42 33.01555 -117.65427 9979 ft 321 kts 304°
2026-04-25 03:42 33.02925 -117.67568 9980 ft 321 kts 304°
2026-04-25 03:42 33.04263 -117.69659 9979 ft 321 kts 304°
2026-04-25 03:43 33.05618 -117.71780 9976 ft 321 kts 304°
2026-04-25 03:43 33.07070 -117.73812 9974 ft 324 kts 313°
2026-04-25 03:43 33.08765 -117.75595 9984 ft 325 kts 317°
2026-04-25 03:43 33.10523 -117.77299 9974 ft 326 kts 317°
2026-04-25 03:44 33.12281 -117.79006 9975 ft 325 kts 317°
2026-04-25 03:44 33.14016 -117.80729 9978 ft 325 kts 316°
2026-04-25 03:44 33.15745 -117.82477 9980 ft 325 kts 316°
2026-04-25 03:44 33.17467 -117.84229 9978 ft 325 kts 316°
2026-04-25 03:45 33.19270 -117.85878 9961 ft 329 kts 327°
2026-04-25 03:45 33.21400 -117.86787 9979 ft 327 kts 343°
2026-04-25 03:45 33.23584 -117.87326 9959 ft 314 kts 345°
2026-04-25 03:45 33.25675 -117.87809 9958 ft 299 kts 345°
2026-04-25 03:46 33.27671 -117.88275 9951 ft 284 kts 344°
2026-04-25 03:46 33.29577 -117.88733 9744 ft 278 kts 343°
2026-04-25 03:46 33.31466 -117.89198 9492 ft 276 kts 343°
2026-04-25 03:46 33.33342 -117.89662 9226 ft 275 kts 344°
2026-04-25 03:47 33.35226 -117.90131 8908 ft 276 kts 344°
2026-04-25 03:47 33.37093 -117.90598 8662 ft 273 kts 344°
2026-04-25 03:47 33.38939 -117.91083 8406 ft 271 kts 341°
2026-04-25 03:47 33.40746 -117.91704 8161 ft 269 kts 339°
2026-04-25 03:48 33.42534 -117.92368 7920 ft 269 kts 339°
2026-04-25 03:48 33.44319 -117.93035 7672 ft 269 kts 339°
2026-04-25 03:48 33.46104 -117.93698 7425 ft 268 kts 340°
2026-04-25 03:48 33.47884 -117.94355 7195 ft 267 kts 340°
2026-04-25 03:49 33.49659 -117.95006 6958 ft 267 kts 340°
2026-04-25 03:49 33.51411 -117.95646 6721 ft 266 kts 340°
2026-04-25 03:49 33.53175 -117.96291 6484 ft 264 kts 341°
2026-04-25 03:49 33.54932 -117.96931 6242 ft 264 kts 341°
2026-04-25 03:50 33.56690 -117.97572 5988 ft 263 kts 341°
2026-04-25 03:50 33.58442 -117.98210 5738 ft 263 kts 341°
2026-04-25 03:50 33.60186 -117.98846 5490 ft 262 kts 341°
2026-04-25 03:50 33.61927 -117.99480 5241 ft 260 kts 341°
2026-04-25 03:51 33.63656 -118.00111 5068 ft 259 kts 341°
2026-04-25 03:51 33.65388 -118.00743 5039 ft 261 kts 341°
2026-04-25 03:51 33.67128 -118.01378 5023 ft 260 kts 341°
2026-04-25 03:51 33.68863 -118.02002 4972 ft 260 kts 342°
2026-04-25 03:52 33.70600 -118.02611 4970 ft 260 kts 342°
2026-04-25 03:52 33.72338 -118.03240 4969 ft 260 kts 341°
2026-04-25 03:52 33.74040 -118.03881 4972 ft 260 kts 341°
2026-04-25 03:52 33.75777 -118.04528 4972 ft 261 kts 341°
2026-04-25 03:53 33.77510 -118.05168 4974 ft 261 kts 341°
2026-04-25 03:53 33.79216 -118.05900 4970 ft 260 kts 334°
2026-04-25 03:53 33.80816 -118.06853 4953 ft 251 kts 330°
2026-04-25 03:53 33.82314 -118.07801 4950 ft 236 kts 330°
2026-04-25 03:54 33.83724 -118.08691 4943 ft 221 kts 330°
2026-04-25 03:54 33.85071 -118.09533 4993 ft 217 kts 330°
2026-04-25 03:54 33.86411 -118.10365 5008 ft 217 kts 331°
2026-04-25 03:54 33.87762 -118.11198 5015 ft 218 kts 331°
2026-04-25 03:55 33.89111 -118.12023 5031 ft 214 kts 331°
2026-04-25 03:55 33.90401 -118.12810 5013 ft 201 kts 331°
2026-04-25 03:55 33.91638 -118.13495 5008 ft 196 kts 341°
2026-04-25 03:55 33.92974 -118.13508 4991 ft 201 kts 24°
2026-04-25 03:56 33.93960 -118.12362 5014 ft 204 kts 69°
2026-04-25 03:56 33.94272 -118.10678 5013 ft 210 kts 81°
2026-04-25 03:56 33.94519 -118.08943 5002 ft 209 kts 81°
2026-04-25 03:56 33.94762 -118.07228 4981 ft 206 kts 81°
2026-04-25 03:57 33.95004 -118.05537 4994 ft 204 kts 81°
2026-04-25 03:57 33.95243 -118.03859 4985 ft 203 kts 81°
2026-04-25 03:57 33.95481 -118.02167 5004 ft 206 kts 81°
2026-04-25 03:57 33.95721 -118.00455 5012 ft 208 kts 82°
2026-04-25 03:58 33.95963 -117.98743 4999 ft 207 kts 81°
2026-04-25 03:58 33.96205 -117.97034 5014 ft 206 kts 81°
2026-04-25 03:58 33.96443 -117.95330 5023 ft 207 kts 81°
2026-04-25 03:58 33.96676 -117.93635 5013 ft 208 kts 81°
2026-04-25 03:59 33.96848 -117.91913 5003 ft 207 kts 95°
2026-04-25 03:59 33.96448 -117.90278 5001 ft 202 kts 124°
2026-04-25 03:59 33.95468 -117.89116 5020 ft 197 kts 153°
2026-04-25 03:59 33.94166 -117.88698 5019 ft 195 kts 183°
2026-04-25 04:00 33.92864 -117.89120 5028 ft 197 kts 212°
2026-04-25 04:00 33.91899 -117.90261 5017 ft 195 kts 239°
2026-04-25 04:00 33.91270 -117.91703 5013 ft 195 kts 250°
2026-04-25 04:00 33.91140 -117.93308 5014 ft 194 kts 279°
2026-04-25 04:01 33.91699 -117.94787 5028 ft 199 kts 309°
2026-04-25 04:01 33.92744 -117.95902 5026 ft 202 kts 320°
2026-04-25 04:01 33.93851 -117.96912 5025 ft 201 kts 321°
2026-04-25 04:01 33.94837 -117.98086 5012 ft 199 kts 300°
2026-04-25 04:02 33.95444 -117.99599 5020 ft 199 kts 291°
2026-04-25 04:02 33.95978 -118.01115 5013 ft 199 kts 291°
2026-04-25 04:02 33.96377 -118.02688 4994 ft 196 kts 267°
2026-04-25 04:02 33.96222 -118.04291 5017 ft 193 kts 262°
2026-04-25 04:03 33.96080 -118.05890 5007 ft 189 kts 263°
2026-04-25 04:03 33.95961 -118.07442 5001 ft 185 kts 264°
2026-04-25 04:03 33.95853 -118.08994 5020 ft 187 kts 264°
2026-04-25 04:03 33.95752 -118.10570 5020 ft 188 kts 264°
2026-04-25 04:04 33.95654 -118.12143 5028 ft 187 kts 264°
2026-04-25 04:04 33.95566 -118.13721 4932 ft 193 kts 266°
2026-04-25 04:04 33.95499 -118.15301 4845 ft 185 kts 266°
2026-04-25 04:04 33.95467 -118.16806 4650 ft 178 kts 268°
2026-04-25 04:05 33.95452 -118.18271 4453 ft 174 kts 268°
2026-04-25 04:05 33.95428 -118.19766 4107 ft 178 kts 268°
2026-04-25 04:05 33.95390 -118.21220 3742 ft 173 kts 266°
2026-04-25 04:05 33.95311 -118.22645 3396 ft 169 kts 265°
2026-04-25 04:06 33.95208 -118.24057 3070 ft 167 kts 264°
2026-04-25 04:06 33.95102 -118.25422 2825 ft 160 kts 264°
2026-04-25 04:06 33.94999 -118.26771 2632 ft 165 kts 264°
2026-04-25 04:06 33.94885 -118.28152 2507 ft 164 kts 263°
2026-04-25 04:07 33.94731 -118.29467 2313 ft 156 kts 261°
2026-04-25 04:07 33.94571 -118.30770 1912 ft 161 kts 262°
2026-04-25 04:07 33.94424 -118.32060 1608 ft 149 kts 260°
2026-04-25 04:07 33.94270 -118.33277 1298 ft 146 kts 261°
2026-04-25 04:08 33.94119 -118.34473 1025 ft 143 kts 262°
2026-04-25 04:08 33.94014 -118.35648 713 ft 139 kts 263°
2026-04-25 04:08 33.93900 -118.36784 432 ft 142 kts 260°
2026-04-25 04:08 33.93769 -118.38059 273 ft 154 kts 262°
2026-04-25 04:09 33.93634 -118.39278 125 ft 134 kts 263°